Погода в Акароа

Новая Зеландия     43°48′17″S   172°58′02″E
темп.,
°C
ветер,
м/с
пор.,
м/с
влажн.,
%
обл.,
%
осадки,
мм/ч
давл.,
гПа
погр.,
м
19 апреля, пн
пн1900:00+10з11716 0.0 101017
03:00+9зюз2168100 0.0 101024
06:00+9з117096 0.0 101119
09:00+14зсз11555 0.0 101384
12:00+18св214496 0.0 1013904
15:00+17св124454 0.0 1012701
18:00+10с228296 0.0 101448
21:00+10с128817 0.0 101546
20 апреля, вт
вт2000:00+10с12955 0.0 101544
03:00+9ссз11866 0.0 101427
06:00+9ссз11907 0.0 101428
09:00+13ссв1266100 0.0 1013122
12:00+16ссв234891 0.0 1011621
15:00+15ссв2254100 0.0 1008491
18:00+10ссз1180100 0.0 100728
21:00+12сз1170100 0.0 100739
21 апреля, ср
ср2100:00+13зюз2361100 0.0 100548
03:00+12ю116687 0.0 100521
06:00+12зюз1165100 0.0 100515
09:00+13зюз1260100 0.0 1006102
12:00+17ю244799 0.0 10061097
15:00+15ю345499 0.0 1006769
18:00+10ююз369619 0.0 1009214
21:00+11ююв249294 0.1 1012282
22 апреля, чт
чт2200:00+10ююв129598 0.4 1013164
03:00+10вюв129689 0.1 1013153
06:00+10всв239478 0.2 1013217
09:00+10св3691100 0.1 1013534
12:00+12св368997 0.3 1013666
15:00+12св368789 0.3 1011664
18:00+12св369068 0.3 1011461
21:00+11ссв259594 0.0 1012275
23 апреля, пт
пт2300:00+12ссв2497100 0.0 1011220
03:00+10ссз2295100 0.0 101060
06:00+10ссз2288100 0.0 101044
09:00+13сз1274100 0.0 100977
12:00+18ссз1346100 0.0 1008679
15:00+18с1248100 0.0 1007680
18:00+13зсз116957 0.0 100715
21:00+12з11697 0.0 100715